Home > Weather > Esslingen > Past weeks

Flag for Germany Weather for the Past 2 Weeks in Esslingen, Baden-Württemberg, Germany

Now
34 °F

Clear.


Feels Like: 34 °F
Forecast: 33 / 42 °F
Wind: 2 mph from Southeast

Location: Stuttgart-Echterdingen

Current Time: Feb 12, 2016 at 12:28:03 AM

Latest Report: Feb 11, 2016 at 11:50 PM


Visibility: 10 mi

Pressure: 29.71 "Hg

Humidity: 87%

Dew point: 30 °F

Location of EsslingenLocation

Historic Weather in Esslingen — Graph

°F

Esslingen Temperature Yesterday

Maximum temperature yesterday: 43 °F (at 1:50 PM)
Minimum temperature yesterday: 36 °F (at 12:20 AM)
Average temperature yesterday: 38 °F

High & Low Weather Summary for the Past Weeks

 TemperatureHumidityPressure
High57 °F (Feb 6, 1:20 PM)100% (Jan 28, 7:20 PM)30.45 "Hg (Jan 28, 7:20 PM)
Low32 °F (Feb 6, 4:20 AM)44% (Feb 6, 1:20 PM)29.15 "Hg (Feb 9, 5:50 PM)
Average43 °F81%29.98 "Hg
* Reported Jan 27 10:20 PM — Feb 11 10:20 PM, Esslingen, Weather by CustomWeather, © 2016

Note: Actual official high and low records may vary slightly from our data, if they occured in-between our weather recording intervals... More about our weather records

Advertising

Esslingen Weather History for the Previous 24 Hours

 ConditionsComfort  
Time TempWeatherWind HumidityBarometerVisibility
10:20 PM
Thu, Feb 11
36 °FPartly cloudy.2 mph81%29.71 "HgN/A
9:50 PM36 °FClear.1 mph81%29.71 "Hg10 mi
9:20 PM36 °FClear.1 mph75%29.71 "Hg10 mi
8:50 PM36 °FClear.1 mph75%29.71 "Hg10 mi
8:20 PM36 °FClear.No wind75%29.71 "Hg10 mi
7:50 PM36 °FClear.2 mph81%29.71 "Hg10 mi
7:20 PM37 °FClear.2 mph70%29.71 "Hg10 mi
6:50 PM39 °FClear.2 mph70%29.71 "Hg10 mi
6:20 PM39 °FPassing clouds.5 mph65%29.71 "HgN/A
5:50 PM39 °FPassing clouds.5 mph65%29.71 "HgN/A
5:20 PM39 °FSunny.6 mph65%29.71 "Hg10 mi
4:50 PM41 °FPassing clouds.6 mph61%29.71 "HgN/A
4:20 PM41 °FPassing clouds.6 mph57%29.71 "HgN/A
3:50 PM41 °FPassing clouds.9 mph61%29.71 "HgN/A
3:20 PM41 °FPassing clouds.13 mph57%29.71 "HgN/A
2:50 PM43 °FPassing clouds.14 mph57%29.71 "HgN/A
2:20 PM43 °FPartly sunny.15 mph61%29.71 "HgN/A
1:50 PM43 °FPartly sunny.12 mph57%29.71 "HgN/A
1:20 PM41 °FPartly sunny.14 mph66%29.74 "HgN/A
12:50 PM41 °FPartly sunny.13 mph66%29.74 "HgN/A
12:20 PM41 °FPartly sunny.10 mph66%29.74 "HgN/A
11:50 AM39 °FPartly sunny.13 mph75%29.74 "HgN/A
11:20 AM39 °FPartly sunny.13 mph75%29.74 "HgN/A
10:50 AM37 °FSprinkles. Broken clouds.10 mph81%29.74 "HgN/A
10:20 AM37 °FSprinkles. Broken clouds.14 mph81%29.74 "HgN/A
9:50 AM37 °FSnow flurries. Partly sunny.14 mph81%29.74 "HgN/A
9:20 AM37 °FPartly sunny.14 mph81%29.74 "HgN/A
8:50 AM37 °FPartly sunny.8 mph81%29.71 "HgN/A
8:20 AM37 °FPartly sunny.10 mph81%29.71 "HgN/A
7:50 AM37 °FPartly sunny.9 mph81%29.71 "HgN/A
7:20 AM36 °FPassing clouds.12 mph87%29.71 "HgN/A
6:50 AM36 °FPartly cloudy.10 mph87%29.71 "HgN/A
6:20 AM36 °FPassing clouds.10 mph87%29.71 "HgN/A
5:50 AM36 °FPassing clouds.10 mph87%29.71 "HgN/A
5:20 AM36 °FPartly cloudy.12 mph87%29.71 "HgN/A
4:50 AM36 °FPassing clouds.12 mph87%29.68 "HgN/A
4:20 AM36 °FLight snow. Passing clouds.10 mph87%29.68 "HgN/A
3:20 AM36 °FPassing clouds.9 mph87%29.68 "HgN/A
2:50 AM36 °FLight snow. Passing clouds.10 mph87%29.68 "HgN/A
2:20 AM36 °FLight snow. Passing clouds.10 mph87%29.68 "HgN/A
1:50 AM36 °FLight snow. Passing clouds.10 mph87%29.65 "HgN/A
1:20 AM36 °FLight snow. Partly cloudy.12 mph87%29.65 "HgN/A
12:50 AM36 °FLight snow. Partly cloudy.10 mph87%29.65 "HgN/A
12:20 AM36 °FLight snow. Passing clouds.10 mph87%29.62 "HgN/A
Weather by CustomWeather, © 2016

See weather overviewHow to use our weather pages